This is the latest recevied weather packets stored in our database for station/object N7WSS. If no packets are shown the sender has not sent any weather packets the latest 10 day(s).
| Time | Temp. | Humidity | Pressure | Rain* | Wind** | Luminosity | Snow |
|---|---|---|---|---|---|---|---|
| 1787809788 | 30.56° C | 42% | 1013.5 hPa | 0 mm | - | - | - |
| 1787809483 | 30.56° C | 42% | 1013.5 hPa | 0 mm | - | - | - |
| 1787809179 | 30° C | 42% | 1013.7 hPa | 0 mm | - | - | - |
| 1787808876 | 30.56° C | 42% | 1013.6 hPa | 0 mm | - | - | - |
| 1787808575 | 30.56° C | 42% | 1013.6 hPa | 0 mm | - | - | - |
| 1787808274 | 30.56° C | 41% | 1013.6 hPa | 0 mm | - | - | - |
| 1787807973 | 30.56° C | 41% | 1013.6 hPa | 0 mm | - | - | - |
| 1787807668 | 30.56° C | 41% | 1013.5 hPa | 0 mm | - | - | - |
| 1787807363 | 30.56° C | 42% | 1013.6 hPa | 0 mm | - | - | - |
| 1787807059 | 30.56° C | 42% | 1013.7 hPa | 0 mm | - | - | - |
| 1787806757 | 31.11° C | 41% | 1013.5 hPa | 0 mm | - | - | - |
| 1787806452 | 31.11° C | 41% | 1013.3 hPa | 0 mm | - | - | - |
| 1787806151 | 31.67° C | 40% | 1013.5 hPa | 0 mm | - | - | - |
| 1787805846 | 31.67° C | 40% | 1013.5 hPa | 0 mm | - | - | - |
| 1787805542 | 32.22° C | 39% | 1013.7 hPa | 0 mm | - | - | - |
| 1787805238 | 32.78° C | 38% | 1013.3 hPa | 0 mm | - | - | - |
| 1787804936 | 32.78° C | 38% | 1013.5 hPa | 0 mm | - | - | - |
| 1787804632 | 32.22° C | 39% | 1013.3 hPa | 0 mm | - | - | - |
| 1787804331 | 32.78° C | 38% | 1013.2 hPa | 0 mm | - | - | - |
| 1787804031 | 32.78° C | 38% | 1013.3 hPa | 0 mm | - | - | - |
| 1787803727 | 33.33° C | 37% | 1013.1 hPa | 0 mm | - | - | - |
| 1787803425 | 33.33° C | 37% | 1013 hPa | 0 mm | - | - | - |
| 1787803124 | 33.33° C | 37% | 1013 hPa | 0 mm | - | - | - |
| 1787802820 | 33.33° C | 37% | 1013 hPa | 0 mm | - | - | - |
| 1787802518 | 33.33° C | 37% | 1012.9 hPa | 0 mm | - | - | - |
* Rain latest hour (hover to see other rain measurements)
** Current wind speed in m/s (hover to see current wind gust speed)